Tracking 19245 objects as of 14-Aug-2018
HD Live streaming from Space Station
objects crossing your sky now

FENGYUN 1C DEB

Track FENGYUN 1C DEB now!
10-day predictions


NORAD ID: 30420
Int'l Code: 1999-025AEK
Perigee: 534.9 km
Apogee: 765.6 km
Inclination: 98.9 °
Period: 97.6 minutes
Semi major axis: 7021 km
RCS: 0.046 m2 (small)
Launch date: May 10, 1999
Source: People's Republic of China (PRC)
Launch site: Taiyaun Space Center, China (TSC)

Note: This is SATELLITE DEBRIS
aabbcc
Your satellite tracking list
Your tracking list is empty




NASA's NSSDC Master Catalog

Two Line Element Set (TLE):
1 30420U 99025AEK 18225.80996285 +.00000377 +00000-0 +53636-4 0  9993
2 30420 098.9435 285.2631 0164231 282.3705 141.4720 14.75640384617353
Source of the keplerian elements: AFSPC